User: anonymous   Login
Location: Unspecified
(0.0000°N, 0.0000°E)
Time: 12:48:46
(UTC+00:00)
Language:

Orbcomm G2 (FM04) - Orbit

View from above orbital plane
View from above orbital plane
View from above satellite
View from above satellite

Ground track
Ground track

The orbit data is extracted from the following two-line orbital elements,

1 25159U 98007C   17230.00758051 -.00000022  00000-0  42545-4 0  9994
2 25159 107.9938  53.2106 0044233 171.9957 188.1895 14.29427283 15270
Epoch (UTC): 18 August 2017 00:10:54
Eccentricity: 0.0044233
inclination: 107.9938°
perigee height: 762 km
apogee height: 825 km
right ascension of ascending node: 53.2106°
argument of perigee: 171.9957°
revolutions per day: 14.29427283
mean anomaly at epoch: 188.1895°
orbit number at epoch: 1527

The dashed part of the orbit path shows where the satellite is in the earth's shadow,  

DLR